Needles, CA

9:47 PM PDT on October 16, 2017 (GMT -0700)
Needles

Weather History for KEED - July, 2014

Change the Weather History Date:

Sunday, July 27, 2014

  Actual Average Record
Temperature  
Mean Temperature 98 °F 97 °F  
Max Temperature 104 °F 109 °F 119 °F (2016)
Min Temperature 93 °F 85 °F 65 °F (1909)
Degree Days  
Heating Degree Days 0    
Cooling Degree Days 34    
Growing Degree Days 48 (Base 50)    
Moisture  
Dew Point 57 °F    
Average Humidity 26    
Maximum Humidity 36    
Minimum Humidity 18    
Precipitation  
Precipitation 0.00 in 0.00 in 0.80 in (1939)
Month to date precipitation 0.13  
Year to date precipitation 2.51  
Sea Level Pressure  
Sea Level Pressure 29.81 in    
Wind  
Wind Speed 9 mph (SSW)    
Max Wind Speed 21 mph    
Max Gust Speed 34 mph    
Visibility 9 miles    
Events      
T = Trace of Precipitation, MM = Missing Value Source: NWS Daily Summary

Daily Weather History Graph

Daily Weather History Graph

Search for Another Location

Airport or City:

Trip Planner

Search our weather history database for the weather conditions in past years. The results will help you decide how hot, cold, wet, or windy it might be!

Date:

Astronomy

Jul. 27, 2014 Rise Set
Actual Time 5:44 AM PDT 7:44 PM PDT
Civil Twilight 5:16 AM PDT 8:12 PM PDT
Nautical Twilight 4:42 AM PDT 8:46 PM PDT
Astronomical Twilight 4:05 AM PDT 9:23 PM PDT
Moon 6:30 AM PDT (7/27) 8:02 PM PDT (7/27)
Length of Visible Light 14h 56m
Length of Day
14h 00m
New Moon, 1% of the Moon is Illuminated
Jul 27
New Moon
Aug 3
First Quarter
Aug 10
Full
Aug 17
Last Quarter
Aug 25
New

Hourly Weather History & Observations

Time (PDT) Temp. Heat Index Dew Point Humidity Pressure Visibility Wind Dir Wind Speed Gust Speed Precip Events Conditions
12:56 AM 100.0 °F 98.3 °F 55.0 °F 22% 29.70 in 10.0 mi West 10.4 mph - N/A   Clear
1:56 AM 98.1 °F 96.4 °F 55.0 °F 24% 29.71 in 10.0 mi Calm Calm - N/A   Clear
2:56 AM 97.0 °F 95.7 °F 57.0 °F 26% 29.72 in 10.0 mi SSW 4.6 mph - N/A   Clear
3:56 AM 95.0 °F 94.0 °F 57.9 °F 29% 29.72 in 10.0 mi SE 4.6 mph - N/A   Clear
4:56 AM 95.0 °F 94.8 °F 60.1 °F 31% 29.74 in 10.0 mi South 4.6 mph - N/A   Clear
5:56 AM 93.9 °F 93.6 °F 60.1 °F 32% 29.76 in 10.0 mi WSW 9.2 mph - N/A   Clear
6:56 AM 95.0 °F 94.8 °F 60.1 °F 31% 29.79 in 10.0 mi SW 19.6 mph 25.3 mph N/A   Clear
7:30 AM 93.0 °F 93.0 °F 61.0 °F 34% 29.94 in 2.5 mi South 19.6 mph 34.5 mph N/A   Haze
7:56 AM 93.9 °F 94.0 °F 61.0 °F 33% 29.84 in 2.5 mi SSE 11.5 mph - N/A   Haze
8:33 AM 93.0 °F 93.8 °F 62.1 °F 36% 29.99 in 4.0 mi South 13.8 mph 25.3 mph N/A   Haze
8:56 AM 93.0 °F 93.8 °F 62.1 °F 36% 29.89 in 10.0 mi South 18.4 mph - N/A   Overcast
9:24 AM 93.0 °F 93.8 °F 62.1 °F 36% 30.01 in 10.0 mi South 15.0 mph - N/A   Scattered Clouds
9:56 AM 97.0 °F 97.4 °F 61.0 °F 30% 29.90 in 10.0 mi SW 20.7 mph 26.5 mph N/A   Clear
10:56 AM 98.1 °F 98.1 °F 60.1 °F 28% 29.88 in 10.0 mi SSW 12.7 mph - N/A   Clear
11:56 AM 98.1 °F 96.8 °F 57.0 °F 25% 29.85 in 10.0 mi WSW 10.4 mph - N/A   Clear
12:56 PM 100.9 °F 100.0 °F 57.0 °F 23% 29.83 in 10.0 mi SSE 10.4 mph - N/A   Clear
1:56 PM 102.0 °F 101.1 °F 55.9 °F 22% 29.82 in 10.0 mi SE 11.5 mph - N/A   Clear
2:56 PM 102.9 °F 101.9 °F 55.9 °F 21% 29.78 in 10.0 mi SSW 6.9 mph 19.6 mph N/A   Clear
3:56 PM 102.0 °F 100.1 °F 54.0 °F 20% 29.75 in 10.0 mi Calm Calm - N/A   Clear
4:56 PM 104.0 °F - 52.0 °F 18% 29.73 in 10.0 mi SW 5.8 mph - N/A   Clear
5:56 PM 102.9 °F 101.4 °F 54.0 °F 20% 29.73 in 10.0 mi WSW 6.9 mph - N/A   Clear
6:56 PM 102.0 °F 99.7 °F 53.1 °F 19% 29.74 in 10.0 mi SW 10.4 mph - N/A   Clear
7:56 PM 100.9 °F - 52.0 °F 19% 29.75 in 10.0 mi WSW 9.2 mph - N/A   Clear
8:56 PM 99.0 °F - 52.0 °F 21% 29.78 in 10.0 mi West 9.2 mph - N/A   Clear
9:56 PM 97.0 °F 94.6 °F 54.0 °F 23% 29.80 in 10.0 mi SW 10.4 mph - N/A   Clear
10:56 PM 95.0 °F 93.0 °F 55.0 °F 26% 29.81 in 10.0 mi SW 6.9 mph - N/A   Clear
11:56 PM 93.9 °F 92.0 °F 55.0 °F 27% 29.81 in 10.0 mi SW 9.2 mph - N/A   Clear